Weather History for Dyersburg, TN

Change the Weather History Date:

Saturday, March 30, 2013

  Actual Average Record
Temperature  
Mean Temperature 46 °F -  
Max Temperature 53 °F 62 °F 84 °F (2007)
Min Temperature 39 °F 45 °F 30 °F (2014)
Degree Days  
Heating Degree Days 19    
Moisture  
Dew Point 40 °F    
Average Humidity 77    
Maximum Humidity 82    
Minimum Humidity 71    
Precipitation  
Precipitation 0.00 in - - ()
Sea Level Pressure  
Sea Level Pressure 30.09 in    
Wind  
Wind Speed 5 mph (ESE)    
Max Wind Speed 10 mph    
Max Gust Speed -    
Visibility 3 miles    
Events      
Averages and records for this station are not official NWS values.
T = Trace of Precipitation, MM = Missing Value Source: NWS Daily Summary

Daily Weather History Graph

Daily Weather History Graph

Search for Another Location

Airport:

Trip Planner

Search our weather history database for the weather conditions in past years. The results will help you decide how hot, cold, wet, or windy it might be!

Date:

Astronomy

Mar. 30, 2013 Rise Set
Actual Time 6:46 AM CDT 7:18 PM CDT
Civil Twilight 6:20 AM CDT 7:43 PM CDT
Nautical Twilight 5:50 AM CDT 8:14 PM CDT
Astronomical Twilight 5:19 AM CDT 8:45 PM CDT
Moon 11:16 PM CDT (3/30) 8:48 AM CDT (3/30)
Length of Visible Light 13h 23m
Length of Day
12h 31m
Waning Gibbous, 86% of the Moon is Illuminated
Mar 30
Waning Gibbous
Apr 2
Last Quarter
Apr 10
New
Apr 18
First Quarter
Apr 25
Full

Hourly Weather History & Observations

Time (CDT) Temp. Windchill Dew Point Humidity Pressure Visibility Wind Dir Wind Speed Gust Speed Precip Events Conditions
12:15 AM 44.6 °F - 37.4 °F 76% 30.21 in 0.2 mi Calm Calm - N/A   Overcast
12:35 AM 44.6 °F 43.1 °F 37.4 °F 76% 30.21 in 0.2 mi East 3.5 mph - N/A   Overcast
12:55 AM 44.6 °F 42.2 °F 37.4 °F 76% 30.22 in 0.2 mi ESE 4.6 mph - N/A   Overcast
1:15 AM 44.6 °F 43.1 °F 37.4 °F 76% 30.22 in 0.2 mi ESE 3.5 mph - N/A   Overcast
1:35 AM 44.6 °F 43.1 °F 37.4 °F 76% 30.22 in 0.2 mi East 3.5 mph - N/A   Overcast
1:55 AM 44.6 °F - 37.4 °F 76% 30.22 in 0.2 mi Calm Calm - N/A   Overcast
2:15 AM 44.6 °F 42.2 °F 35.6 °F 71% 30.21 in 0.2 mi East 4.6 mph - N/A   Overcast
2:35 AM 42.8 °F 39.3 °F 35.6 °F 76% 30.20 in 0.2 mi East 5.8 mph - N/A   Overcast
2:55 AM 42.8 °F 40.1 °F 35.6 °F 76% 30.19 in 0.2 mi ENE 4.6 mph - N/A   Overcast
3:15 AM 42.8 °F 41.1 °F 35.6 °F 76% 30.19 in 0.2 mi East 3.5 mph - N/A   Overcast
3:35 AM 42.8 °F 41.1 °F 35.6 °F 76% 30.17 in 0.2 mi East 3.5 mph - N/A   Overcast
3:55 AM 42.8 °F 38.6 °F 35.6 °F 76% 30.17 in 0.2 mi ENE 6.9 mph - N/A   Overcast
4:15 AM 42.8 °F 38.0 °F 35.6 °F 76% 30.17 in 0.2 mi ENE 8.1 mph - N/A   Overcast
4:35 AM 42.8 °F 38.6 °F 35.6 °F 76% 30.17 in 0.2 mi ENE 6.9 mph - N/A   Overcast
4:55 AM 42.8 °F - 35.6 °F 76% 30.17 in 0.2 mi Calm Calm - N/A   Overcast
5:15 AM 42.8 °F 40.1 °F 35.6 °F 76% 30.17 in 0.2 mi ENE 4.6 mph - N/A   Overcast
5:35 AM 42.8 °F 40.1 °F 35.6 °F 76% 30.17 in 0.2 mi ENE 4.6 mph - N/A   Overcast
5:55 AM 41.0 °F 37.1 °F 33.8 °F 76% 30.17 in 0.2 mi ENE 5.8 mph - N/A   Overcast
6:15 AM 41.0 °F - 33.8 °F 76% 30.17 in 0.2 mi Calm Calm - N/A   Overcast
6:35 AM 41.0 °F 37.1 °F 33.8 °F 76% 30.17 in 0.2 mi ENE 5.8 mph - N/A   Overcast
6:55 AM 39.2 °F 35.0 °F 33.8 °F 81% 30.16 in 0.2 mi ENE 5.8 mph - N/A   Overcast
7:15 AM 39.2 °F 35.9 °F 33.8 °F 81% 30.17 in 0.2 mi ENE 4.6 mph - N/A   Overcast
7:35 AM 41.0 °F 39.0 °F 33.8 °F 76% 30.17 in 0.2 mi East 3.5 mph - N/A   Overcast
7:55 AM 41.0 °F - 33.8 °F 76% 30.18 in 0.2 mi Calm Calm - N/A   Overcast
8:15 AM 42.8 °F 40.1 °F 35.6 °F 76% 30.18 in 0.2 mi ENE 4.6 mph - N/A   Overcast
8:35 AM 42.8 °F 38.6 °F 35.6 °F 76% 30.18 in 0.2 mi ENE 6.9 mph - N/A   Overcast
8:55 AM 42.8 °F 40.1 °F 35.6 °F 76% 30.17 in 0.2 mi East 4.6 mph - N/A   Overcast
9:15 AM 42.8 °F 38.6 °F 35.6 °F 76% 30.16 in 0.2 mi East 6.9 mph - N/A   Overcast
9:35 AM 44.6 °F 41.4 °F 37.4 °F 76% 30.17 in 1.2 mi ENE 5.8 mph - N/A   Overcast
9:55 AM 44.6 °F 40.7 °F 37.4 °F 76% 30.16 in 1.8 mi ENE 6.9 mph - N/A   Overcast
10:15 AM 44.6 °F 40.7 °F 37.4 °F 76% 30.15 in 3.0 mi ENE 6.9 mph - N/A   Overcast
10:35 AM 44.6 °F 40.7 °F 37.4 °F 76% 30.15 in 4.0 mi East 6.9 mph - N/A   Overcast
10:55 AM 44.6 °F 42.2 °F 37.4 °F 76% 30.16 in 6.0 mi East 4.6 mph - N/A   Overcast
11:15 AM 46.4 °F 43.5 °F 37.4 °F 71% 30.15 in 7.0 mi ESE 5.8 mph - N/A   Overcast
11:35 AM 46.4 °F 42.9 °F 39.2 °F 76% 30.15 in 10.0 mi ESE 6.9 mph - N/A   Overcast
11:55 AM 46.4 °F 42.9 °F 39.2 °F 76% 30.14 in 10.0 mi East 6.9 mph - N/A   Overcast
12:15 PM 46.4 °F 42.9 °F 39.2 °F 76% 30.13 in 10.0 mi ESE 6.9 mph - N/A   Overcast
12:35 PM 48.2 °F - 41.0 °F 76% 30.12 in 10.0 mi ESE 5.8 mph - N/A   Overcast
12:55 PM 48.2 °F - 41.0 °F 76% 30.11 in 10.0 mi East 8.1 mph - N/A   Overcast
1:15 PM 48.2 °F - 42.8 °F 82% 30.11 in 10.0 mi East 6.9 mph - N/A   Overcast
1:35 PM 48.2 °F - 42.8 °F 82% 30.10 in 9.0 mi ESE 4.6 mph - N/A   Overcast
1:55 PM 48.2 °F - 42.8 °F 82% 30.10 in 7.0 mi SE 6.9 mph - N/A   Overcast
2:15 PM 48.2 °F - 42.8 °F 82% 30.08 in 2.5 mi ESE 5.8 mph - N/A   Mostly Cloudy
2:35 PM 50.0 °F - 42.8 °F 76% 30.06 in 4.0 mi East 5.8 mph - N/A   Overcast
2:55 PM 50.0 °F - 42.8 °F 76% 30.05 in 4.0 mi East 5.8 mph - N/A   Overcast
3:15 PM 51.8 °F - 42.8 °F 71% 30.04 in 3.0 mi ESE 9.2 mph - N/A   Overcast
3:35 PM 51.8 °F - 44.6 °F 76% 30.03 in 5.0 mi ESE 10.4 mph - N/A   Overcast
3:55 PM 51.8 °F - 44.6 °F 76% 30.02 in 5.0 mi ESE 8.1 mph - N/A   Mostly Cloudy
4:15 PM 51.8 °F - 44.6 °F 76% 30.01 in 6.0 mi ESE 6.9 mph - N/A   Overcast
4:35 PM 51.8 °F - 44.6 °F 76% 30.00 in 4.0 mi East 6.9 mph - N/A   Overcast
4:55 PM 51.8 °F - 44.6 °F 76% 30.00 in 5.0 mi ESE 5.8 mph - N/A   Overcast
5:15 PM 51.8 °F - 44.6 °F 76% 29.98 in 5.0 mi ESE 6.9 mph - N/A   Overcast
5:35 PM 51.8 °F - 44.6 °F 76% 29.97 in 7.0 mi ESE 8.1 mph - N/A   Overcast
5:55 PM 53.6 °F - 44.6 °F 72% 29.98 in 7.0 mi ESE 4.6 mph - N/A   Overcast
6:15 PM 53.6 °F - 46.4 °F 77% 29.97 in 3.0 mi ESE 8.1 mph - N/A   Overcast
6:35 PM 53.6 °F - 46.4 °F 77% 29.95 in 5.0 mi ESE 10.4 mph - N/A   Overcast
6:55 PM 53.6 °F - 46.4 °F 77% 29.94 in 5.0 mi SSE 6.9 mph - N/A   Overcast
7:15 PM 53.6 °F - 46.4 °F 77% 29.95 in 5.0 mi Calm Calm - N/A   Overcast
7:35 PM 53.6 °F - 46.4 °F 77% 29.95 in 7.0 mi SSE 4.6 mph - N/A   Overcast
7:55 PM 53.6 °F - 46.4 °F 77% 29.94 in 8.0 mi South 3.5 mph - N/A   Overcast
8:15 PM 53.6 °F - 46.4 °F 77% 29.95 in 6.0 mi WSW 3.5 mph - N/A   Overcast
8:35 PM 53.6 °F - 46.4 °F 77% 29.96 in 5.0 mi SW 3.5 mph - N/A   Overcast
8:55 PM 53.6 °F - 46.4 °F 77% 29.96 in 5.0 mi WSW 3.5 mph - N/A   Overcast
9:15 PM 53.6 °F - 46.4 °F 77% 29.96 in 5.0 mi West 4.6 mph - N/A   Overcast
9:35 PM 53.6 °F - 46.4 °F 77% 29.97 in 5.0 mi West 5.8 mph - N/A   Overcast
9:55 PM 53.6 °F - 46.4 °F 77% 29.96 in 2.5 mi WSW 6.9 mph - N/A   Overcast
10:15 PM 53.6 °F - 46.4 °F 77% 29.97 in 2.0 mi WSW 8.1 mph - N/A   Overcast
10:35 PM 53.6 °F - 46.4 °F 77% 29.96 in 1.8 mi WSW 8.1 mph - N/A   Overcast
10:55 PM 53.6 °F - 46.4 °F 77% 29.96 in 1.8 mi WSW 5.8 mph - N/A   Overcast
11:15 PM 53.6 °F - 46.4 °F 77% 29.96 in 2.0 mi WSW 6.9 mph - N/A   Overcast
11:35 PM 53.6 °F - 46.4 °F 77% 29.96 in 3.0 mi West 8.1 mph - N/A   Overcast
11:55 PM 53.6 °F - 48.2 °F 82% 29.95 in 4.0 mi West 4.6 mph - N/A   Overcast